KDKX

Details ICAO KDKX (DKX)
Name Knoxville Downtown Island
Region United States
Timezone America/New_York (UTC-4.0)
Plans Departing 30
Arriving 23
Stats Elevation 833 ft / 254 m (AMSL)
Location 35.963825° -83.873665°
Runways 1
Magnetic Variation 5.847° W
Sunrise 2018-05-21 10:26:58 UTC / 2018-05-21 06:26:58 Local
Sunset 2018-05-22 00:40:05 UTC / 2018-05-21 20:40:05 Local
Advertisement - Login to hide

Runways

ID Width Length Bearing (true) Bearing (mag) Surface Threshold Offset Overrun Length
08 75 ft / 23 m 3,491 ft / 1,064 m 75.06° 80.91° Asphalt 0 ft / 0 m 0 ft / 0 m
26 75 ft / 23 m 3,491 ft / 1,064 m 255.06° 260.91° Asphalt 0 ft / 0 m 0 ft / 0 m

Approach Navaids

Runway Type Ident Frequency Range Bearing (true) Bearing (mag) Slope Elevation
26 Localiser IDKX 111.30 MHz 18 nm / 33 km 255.06° 260.91° - 833 ft / 254 m (AMSL)

Map

Weather


0- 5 10 15 20 25 30 35+ Temperature / ° C

Clouds and Precipitation
Forecast for 2018-05-21 18:00 UTC. Updated 2 hours ago

Ground ~20,000 ft ~40,000 ft Winds

METAR

KDKX 211915Z AUTO 15007KT 10SM BKN044 OVC050 27/20 A3012 RMK A01

TAF

Not found

Frequencies

Recorded 125.37 MHz AWOS 3
Clearance 121.70 MHz CLNC DEL
Unicom 122.95 MHz UNICOM
Approach 123.90 MHz APP/DEP
Warning: Do not use this data for real-world aviation or navigation. No guarantee of current accuracy is given.